Location: Givron
(49.6478°N, 4.2886°E)
Time: 12:10:05
(UTC+00:00)

Daily predictions for brighter satellites

Satellite Brightness Start Highest point End
(mag) Time Altitude Azimuth Time Altitude Azimuth Time Altitude Azimuth
Cosmos 1400 Rocket 2.7 18:27:03 10° N 18:30:52 63° ENE 18:34:36 10° SSE
ACS3 Solar Sail 2.9 18:26:18 10° ESE 18:31:31 27° ENE 18:36:44 10° N
Cosmos 2322 3.7 18:26:38 10° SSW 18:32:11 61° ESE 18:37:46 10° NE
Cosmos 1066 Rocket 4.3 18:27:28 10° N 18:33:22 72° ENE 18:39:10 10° SSE
BlueWalker 3 2.6 18:29:45 10° WNW 18:33:22 48° SSW 18:36:59 10° SE
Cosmos 2233 Rocket 4.0 18:27:27 10° S 18:33:34 81° E 18:39:46 10° N
Cosmos 1726 1.2 18:33:24 10° S 18:36:10 75° E 18:38:57 10° NNE
Resurs 1-3 3.5 18:32:37 10° SSE 18:36:56 74° ENE 18:41:17 10° N
SAR-Lupe-2 3.6 18:41:18 10° SSE 18:44:53 83° WSW 18:48:30 10° NNW
Cosmos 1315 Rocket 4.2 18:43:26 10° NNE 18:46:30 21° ENE 18:49:14 11° ESE
Meteor PRIRODA 3.3 18:46:22 10° SSE 18:49:40 80° ENE 18:52:58 10° NNW
ATLAS 2AS CENTAUR R/B 4.3 18:43:48 10° W 18:50:15 34° NNW 18:56:29 10° NE
Cosmos 1125 Rocket 4.0 18:45:27 10° NNW 18:50:25 43° ENE 18:55:22 10° SE
Cosmos 1842 3.1 18:48:16 10° N 18:51:52 57° ENE 18:55:25 10° SSE
USA 59 Rocket 0.4 18:49:46 10° NW 18:53:32 67° SW 18:58:44 10° SSE
Cosmos 1536 3.5 18:51:01 10° SSE 18:54:23 31° E 18:57:47 10° NNE
Okean 3 Rocket 4.1 18:50:44 10° SSE 18:54:50 37° E 18:58:56 10° NNE
Cosmos 1707 2.7 18:52:12 10° N 18:55:40 51° ENE 18:59:08 10° SSE
Cosmos 2061 Rocket 4.5 18:49:16 10° SSW 18:55:41 70° WNW 19:02:08 10° N
Cosmos 1515 Rocket 3.9 18:51:44 10° N 18:55:53 43° ENE 19:00:02 10° SSE
COSMOS 2428 2.7 18:50:17 10° SSW 18:55:58 75° ESE 19:01:43 10° NNE
Cosmos 1818 4.0 18:55:45 10° SW 19:01:12 68° NW 19:06:42 10° NE
Okean O Rocket 2.4 18:57:42 12° SE 19:01:20 33° ENE 19:05:18 10° N
Cosmos 2278 Rocket 2.2 19:00:45 10° NNW 19:06:28 86° ENE 19:12:09 10° SSE
USA 306 2.3 19:04:52 10° WSW 19:07:59 81° NNW 19:11:32 11° ENE
Meteor 1-13 Rocket 4.5 19:03:21 10° N 19:09:08 53° ENE 19:14:45 10° SSE
CZ-4B DEB 4.4 19:03:40 10° SSE 19:09:11 79° WSW 19:14:43 10° NNW
CZ-4 R/B 1.3 19:06:22 10° SSE 19:10:12 84° WSW 19:14:07 10° NNW
Cosmos 2034 Rocket 4.5 19:06:23 10° SSE 19:11:58 37° E 19:17:33 10° NNE
CZ-4B R/B 3.2 19:08:16 10° SSE 19:13:40 70° ENE 19:19:01 10° NNW
Cosmos 1500 Rocket 4.5 19:10:44 14° SE 19:13:42 27° E 19:17:22 10° NNE
Cosmos 1766 Rocket 3.7 19:10:06 10° SSW 19:14:28 78° W 19:18:53 10° N
Resurs 01 Rocket 1.6 19:11:19 10° SSE 19:15:44 76° ENE 19:20:10 10° N
Meteor 2-17 Rocket 4.4 19:09:43 10° N 19:15:49 86° E 19:21:53 10° S
Helios 1A 2.9 19:12:17 10° NNE 19:16:23 88° WNW 19:20:27 10° SSW
USA 290 2.9 19:13:38 10° NNW 19:16:53 56° WSW 19:20:06 10° S
Meteor 2-10 4.4 19:12:16 10° SSE 19:17:38 50° E 19:23:08 10° NNE
ADEOS 4.4 19:13:21 10° S 19:18:26 54° W 19:23:33 10° NNW
GEOS 3 Rocket 3.8 19:13:40 10° SSE 19:18:50 70° SW 19:24:01 10° NW
USA 186 1.7 19:17:50 10° SSE 19:21:02 87° WSW 19:24:17 10° NNW
CZ-4B R/B 4.4 19:16:43 10° S 19:21:17 47° W 19:25:58 10° NNW
Cosmos 1814 Rocket 4.2 19:17:01 10° SSW 19:22:18 77° WNW 19:27:35 10° NNE
PAYLOAD B 4.4 19:16:42 10° SSE 19:22:19 80° WSW 19:27:57 10° NNW
KORONAS-FOTON 4.3 19:19:04 10° NNW 19:22:43 57° W 19:26:20 10° S
Cosmos 2360 Rocket 4.5 19:18:07 10° W 19:22:46 25° NW 19:27:25 10° NNE
MOS 1-B 4.3 19:17:49 10° SSE 19:23:33 68° ENE 19:29:18 10° NNW
SPOT 5 3.6 19:22:14 21° ESE 19:24:21 31° ENE 19:28:17 10° N
Okean-O 3.4 19:23:05 22° ESE 19:25:07 33° ENE 19:29:05 10° N
Cosmos 2208 Rocket 4.5 19:21:49 10° S 19:26:39 38° ESE 19:31:33 10° NE
USA 267 4.0 19:21:10 10° ENE 19:27:21 48° N 19:33:34 10° WNW
Cosmos 1408 Rocket 3.8 19:24:22 10° SSE 19:28:33 47° E 19:32:48 10° NNE
ISS -3.4 19:26:34 10° SW 19:29:46 44° SSE 19:30:43 34° ESE
NOSS 3-3 (A) 4.2 19:25:18 10° S 19:30:10 37° ESE 19:35:47 10° NE
CZ-4B R/B 3.6 19:26:32 10° S 19:30:19 53° W 19:34:18 10° NNW
Kosmos-1783 4.4 19:30:41 10° W 19:32:22 21° NW 19:33:11 15° N
SL-08 R/B 4.2 19:28:05 10° N 19:32:53 54° WNW 19:37:40 10° SW
Cosmos 2237 Rocket 2.1 19:29:26 10° SSW 19:34:59 64° ESE 19:40:33 10° NNE
CSL-04 Rocket 3.6 19:32:06 10° SSE 19:37:29 86° WSW 19:42:49 10° NNW
Aureole 3 Rocket 4.0 19:31:12 10° SSE 19:37:38 48° E 19:42:19 10° NNE
Cosmos 2219 Rocket 4.1 19:34:58 10° WSW 19:40:00 31° NW 19:45:02 10° NNE
Cosmos 1356 Rocket 4.3 19:38:39 10° NNW 19:42:43 49° W 19:46:44 10° S
Lacrosse 4 Rocket 4.3 19:42:27 10° WNW 19:44:26 13° WSW 19:46:26 10° SW
IKONOS-2 4.4 19:42:05 10° NNE 19:46:13 64° ESE 19:50:19 10° S
Meteor 1-11 Rocket 3.6 19:41:03 10° S 19:46:39 77° E 19:52:12 10° NNE
MOS 1 Rocket 4.0 19:45:38 30° ESE 19:47:36 43° ENE 19:52:37 10° N
CARTOSAT-1 4.4 19:46:43 10° S 19:50:49 49° W 19:54:59 10° NNW
Cosmos 158 Rocket 3.7 19:47:04 10° SSW 19:51:54 69° ESE 19:56:45 10° NNE
ATLAS CENTAUR R/B 0.9 19:48:27 10° SSW 19:51:58 65° SE 19:54:53 16° NE
Spot 2 Rocket 4.5 19:50:58 26° E 19:52:01 29° ENE 19:56:18 10° N
NOSS 3-4 (A) 4.2 19:46:51 10° NW 19:53:14 50° NE 19:57:11 27° E
NOSS 3-4 (C) 4.2 19:46:57 10° NW 19:53:20 50° NE 19:57:18 26° E
Cosmos 1805 Rocket 3.5 19:52:47 31° SSE 19:54:40 57° E 19:58:56 10° NNE
Cosmos 1428 Rocket 4.4 19:51:47 10° N 19:57:56 83° E 20:02:18 20° SSE
Cosmos 1733 3.7 19:55:38 10° SSW 19:59:00 52° WNW 20:02:23 10° N
USA 276 3.8 19:58:47 10° W 20:00:38 21° SW 20:00:38 21° SW
Cosmos 2369 Rocket 2.9 19:58:06 10° NNW 20:03:28 39° NE 20:05:12 32° E
SL-24 R/B 4.4 20:01:56 38° SE 20:03:41 62° E 20:08:26 10° N
Cosmos 1980 3.8 19:58:52 10° SSW 20:04:33 77° WNW 20:10:17 10° NNE
Cosmos 1862 Rocket 4.4 20:02:38 10° N 20:06:32 34° ENE 20:06:32 34° ENE
Meteor 1-21 4.3 20:02:29 10° N 20:08:13 65° ENE 20:10:23 38° SE
Sich 1 2.9 20:07:33 27° S 20:09:50 87° E 20:14:11 10° N
Cosmos 1943 Rocket 2.9 20:05:10 10° NW 20:10:27 48° WSW 20:14:05 19° S
Cosmos 1707 Rocket 4.0 20:06:54 10° N 20:11:05 42° ENE 20:11:05 42° ENE
DELTA 2 DEB (DPAF) 3.9 20:07:45 10° NNE 20:11:47 58° E 20:11:47 58° E
Terra 2.1 20:13:52 46° E 20:14:19 47° ENE 20:18:52 10° N
Cosmos 2298 Rocket 4.0 20:09:02 10° NNW 20:14:21 80° WSW 20:16:27 38° SSE
ACS3 Solar Sail 2.1 20:09:35 15° S 20:15:03 69° W 20:21:28 10° NNW
ERS-1 Rocket 3.0 20:14:04 48° ESE 20:15:04 58° ENE 20:20:01 10° N
Cosmos 2195 Rocket 4.4 20:09:16 10° N 20:15:26 84° W 20:19:12 25° S
Cosmos 2150 Rocket 4.0 20:10:53 10° NNW 20:16:03 78° WSW 20:17:56 40° S
USA 32 4.1 20:11:21 10° N 20:16:37 80° W 20:19:24 29° S
Cosmos 1570 Rocket 4.3 20:11:57 10° SSW 20:17:13 68° WNW 20:22:29 10° NNE
Cosmos 1975 3.2 20:18:58 47° NE 20:18:58 47° NE 20:21:58 10° NNE
Cosmos 1805 3.3 20:21:37 57° SW 20:22:09 67° WNW 20:25:48 10° N
Cosmos 1315 Rocket 4.0 20:18:59 10° NNW 20:22:43 39° W 20:24:27 25° SW
Cosmos 2026 Rocket 3.9 20:16:30 10° N 20:22:47 87° W 20:25:51 32° S
Cosmos 1092 Rocket 4.0 20:16:54 10° N 20:23:17 89° WSW 20:26:29 32° S
Ariane Rocket 3.4 20:24:21 43° ENE 20:24:39 44° ENE 20:29:27 10° N
Meteor 2-12 Rocket 4.3 20:20:24 10° N 20:26:35 83° ENE 20:28:55 41° SSE
IRS-1A Rocket 4.2 20:26:27 45° SSE 20:28:19 82° ENE 20:34:02 10° NNW
Okean 3 4.0 20:29:28 10° N 20:32:45 46° NNE 20:32:45 46° NNE
SL-16 R/B 2.1 20:35:16 59° ESE 20:35:23 60° ESE 20:40:58 10° NE
Okean O Rocket 3.2 20:35:02 18° SSW 20:37:34 31° W 20:41:32 10° NNW
Cosmos 1634 Rocket 3.9 20:36:32 34° S 20:39:28 84° E 20:45:50 10° N
SL-14 R/B 4.1 20:36:45 10° NNW 20:40:22 43° W 20:40:36 42° WSW
Cosmos 1656 Rocket 3.5 20:34:45 10° NNW 20:40:28 86° ENE 20:41:19 66° SE
USA 306 3.7 20:37:35 10° WNW 20:40:35 40° NNW 20:40:35 40° NNW
USA 59 Rocket 3.1 20:42:16 10° WSW 20:42:49 10° WSW 20:43:23 10° WSW
ATLAS 2AS CENTAUR R/B 4.5 20:37:30 10° NW 20:43:13 25° N 20:48:46 10° ENE
IRS-1C Rocket 4.1 20:45:02 62° S 20:45:56 80° WSW 20:51:15 10° NNW
Cosmos 773 Rocket 4.0 20:45:39 38° SSW 20:47:44 85° WNW 20:53:04 10° NNE
Okean 1-7 4.1 20:45:50 10° N 20:48:39 34° NNE 20:48:39 34° NNE
Cosmos 2263 4.3 20:45:55 10° NNW 20:51:37 61° ENE 20:51:55 60° ENE
Resurs 01 Rocket 4.4 20:50:23 10° WSW 20:52:42 14° W 20:55:00 10° NW
Cosmos 2228 Rocket 3.3 20:50:57 10° NNW 20:55:20 68° WNW 20:55:20 68° WNW
SPOT 3 Rocket 3.5 21:00:55 79° NNE 21:00:55 79° NNE 21:05:52 10° NNW
Okean-O 4.1 21:00:31 28° WSW 21:01:29 30° W 21:05:24 10° NNW
SPOT 5 4.0 21:01:23 31° WSW 21:02:20 34° W 21:06:25 10° NNW
Cosmos 2142 Rocket 4.3 21:02:36 72° ESE 21:02:44 73° E 21:08:52 10° NNE
NOSS 3-3 (C) 4.1 21:00:58 10° SW 21:06:27 66° NW 21:13:02 10° NE
ISS -0.8 21:03:10 10° W 21:03:43 14° W 21:03:43 14° W
USA 267 3.4 21:08:22 52° E 21:09:54 67° NNE 21:16:23 10° WNW
Cosmos 1655 Rocket 4.5 21:04:47 10° N 21:10:37 46° ENE 21:10:37 46° ENE
Cosmos 724 4.3 21:15:31 71° NNE 21:15:31 71° NNE 21:20:40 10° NE
Cosmos 2180 Rocket 4.4 21:17:01 80° ESE 21:17:05 80° E 21:23:29 10° NNE
Cosmos 2237 Rocket 4.1 21:14:38 10° WSW 21:19:28 29° NW 21:24:21 10° NNE
NOSS 3-3 (A) 4.5 21:15:18 10° WSW 21:20:46 54° NW 21:27:17 10° NE
Cosmos 2279 Rocket 4.0 21:19:59 61° SW 21:21:03 74° W 21:27:17 10° N
Cosmos 1607 4.1 21:18:19 10° SW 21:24:48 75° NW 21:31:15 10° NE
Cosmos 2297 4.3 21:23:44 10° NW 21:28:59 49° WSW 21:28:59 49° WSW
ATLAS CENTAUR R/B 3.6 21:26:50 10° W 21:29:44 21° NNW 21:29:51 21° NNW
Spot 2 Rocket 4.3 21:31:06 45° W 21:31:06 45° W 21:35:37 10° NNW
NOSS 3-4 (A) 4.1 21:37:40 10° NW 21:44:20 55° WSW 21:44:37 55° SW
NOSS 3-4 (C) 4.1 21:37:47 10° NW 21:44:28 56° WSW 21:44:43 55° SW
Cosmos 2369 Rocket 3.1 21:42:10 10° NW 21:46:58 42° W 21:46:58 42° W
Terra 3.7 21:52:34 24° W 21:52:34 24° W 21:55:57 10° NW
ACS3 Solar Sail 4.3 21:57:24 10° WSW 22:00:16 13° W 22:03:09 10° NW
SL-16 R/B 3.8 22:17:00 20° W 22:19:52 31° NW 22:24:52 10° NNE
ATLAS 2AS CENTAUR R/B 3.5 22:29:29 10° NW 22:35:59 41° NNE 22:36:30 40° NE
Cosmos 1943 4.5 22:41:44 37° N 22:41:44 37° N 22:45:22 10° NNE
USA 267 4.3 22:55:42 35° W 22:55:42 35° W 22:59:27 10° WNW
Cosmos 1697 Rocket 4.2 22:48:43 10° NNW 22:52:28 31° NNE 22:52:28 31° NNE
Cosmos 2344 3.9 23:19:36 10° NW 23:27:14 77° W 23:27:14 77° W
Cosmos 1980 Rocket 3.7 23:48:57 10° NNW 23:52:14 32° N 23:52:14 32° N
